Find KUIPER-00476

NORAD ID: 68874 Int'l Des: 2026-095L Owner: KUIP Country: US Constellation: amazon-leo operational
LEOCIRCULAR

現在のビュー

3D地球を読み込み中...

About KUIPER-00476

KUIPER-00476 (NORAD 68874) is a amazon-leo constellation satellite launched Apr 28, 2026 by KUIP of US. It operates in LEO, CIRCULAR orbit with a mass of 490.00 kg.

KUIPER-00476について

説明を読み込み中...

次回通過

Passes for default location (London). Set your location on the main map for personalized predictions.

高度履歴

Loading altitude history...

軌道要素

1 68874U 26095L 26168.45781493 .00016260 00000-0 47425-3 0 9999
2 68874 51.8741 241.5811 0008239 311.3431 48.6845 15.35466474 7761
Epoch: Jun 17, 2026 • Age: 22 hours

現在のステータス

高度 468.5 km
速度 7.64 km/s
衛星直下点 50.79°N, 94.47°W
打ち上げ日 Apr 28, 2026
運用期間 0.1 years
タイプ internet

技術仕様

分類 Payload
質量 490.00 kg
乾燥質量 490.00 kg
総質量 490.00 kg
長さ 1.80 m
直径 0.70 m
スパン 5.00 m
形状 Box + 2 pan
製造者 KUIP
バスタイプ Kuiper
フェーズステータス In Orbit
所有者/国 KUIP/US

Most Searched